Regional Weather Roundup
Issued by NWS

Home | Current Version | Previous Version | Graphics & Text | Print | Product List | Glossary On
Versions: 1 2 3 4 5 6 7 8 9 10 11 12 13 14 15 16 17 18 19 20 21 22 23 24 25 26 27 28 29 30 31 32 33 34 35 36 37 38 39 40 41 42 43 44 45 46 47 48 49 50
000
ASUS43 KLMK 251802
RWRKY
KENTUCKY REGIONAL WEATHER ROUNDUP
NATIONAL WEATHER SERVICE LOUISVILLE KY
200 PM EDT WED APR 25 2018

NOTE "FAIR" INDICATES FEW OR NO CLOUDS BELOW 12,000 FEET
WITH NO SIGNIFICANT WEATHER AND/OR OBSTRUCTIONS TO VISIBILITY.

KYZ001>023-026-027-061>063-070>075-251900-
WESTERN AND SOUTH CENTRAL KENTUCKY

CITY           SKY/WX    TMP DP  RH WIND       PRES   REMARKS
PADUCAH        FAIR      71  52  50 CALM      30.00F
HENDERSON      PTSUNNY   67  53  61 NW7       30.00F
OWENSBORO      PTSUNNY   66  54  65 NW9       29.99F
HOPKINSVILLE   PTSUNNY   67  53  59 N6        29.99F
BOWLING GREEN  PTSUNNY   67  52  58 VRB6      29.99F
GLASGOW        NOT AVBL
$$

KYZ024-025-028>034-038-045-046-053-251900-
NORTH CENTRAL KENTUCKY

CITY           SKY/WX    TMP DP  RH WIND       PRES   REMARKS
LOUISVILLE/SDF PTSUNNY   66  50  56 NE10      29.96F
LOUISVILLE/LOU PTSUNNY   65  52  62 N10       29.96F
FORT KNOX      PTSUNNY   63  49  61 NW8G20    29.98S
$$

KYZ035>037-039>044-047>052-055>060-089>105-251900-
NORTHEAST KENTUCKY

CITY           SKY/WX    TMP DP  RH WIND       PRES   REMARKS
LEXINGTON      CLOUDY    61  52  72 N8        29.95F
COVINGTON      CLOUDY    60  49  66 NW13      29.94F
FRANKFORT      CLOUDY    60  49  66 N7        29.94F
$$

KYZ054-064>069-076>088-106>120-251900-
SOUTHEAST KENTUCKY

CITY           SKY/WX    TMP DP  RH WIND       PRES   REMARKS
JACKSON        CLOUDY    55  52  89 NW6       29.93R
LONDON         CLOUDY    58  52  80 NW9       29.94F
SOMERSET       NOT AVBL
MIDDLESBORO    CLOUDY    60  52  75 NW6       29.94S
MONTICELLO     NOT AVBL
$$





USA.gov is the U.S. government's official web portal to all federal, state and local government web resources and services.